| time (UTC) | temp C | wind direction | speed KPH | gust KPH | rain 1hr cm | rain 24hr cm | rain mn cm | humidity % | barometer mb |
| 20260507231125 | 15 | 216 | 1.6 | 11.3 | 0.00 | 0.00 | 0.00 | 42 | 1009.7 |
| 20260507222806 | 15 | 198 | 3.2 | 14.5 | 0.00 | 0.00 | 0.00 | 41 | 1009.4 |
| 20260507221735 | 15 | 168 | 3.2 | 17.7 | 0.00 | 0.00 | 0.00 | 42 | 1009.3 |
| 20260507220726 | 15 | 224 | 6.4 | 17.7 | 0.00 | 0.00 | 0.00 | 40 | 1009.2 |
| 20260507214635 | 16 | 241 | 3.2 | 12.9 | 0.00 | 0.00 | 0.00 | 41 | 1009.0 |
| 20260507213642 | 16 | 213 | 1.6 | 11.3 | 0.00 | 0.00 | 0.00 | 40 | 1009.1 |
| 20260507212640 | 16 | 225 | 3.2 | 20.9 | 0.00 | 0.00 | 0.00 | 40 | 1008.9 |
| 20260507211644 | 15 | 215 | 6.4 | 20.9 | 0.00 | 0.00 | 0.00 | 40 | 1008.9 |
| 20260507210701 | 16 | 283 | 4.8 | 16.1 | 0.00 | 0.00 | 0.00 | 39 | 1008.8 |
| 20260507205639 | 16 | 156 | 1.6 | 14.5 | 0.00 | 0.00 | 0.00 | 39 | 1008.8 |
| 20260507204627 | 16 | 277 | 1.6 | 14.5 | 0.00 | 0.00 | 0.00 | 43 | 1008.8 |
| 20260507203606 | 16 | 168 | 3.2 | 17.7 | 0.00 | 0.00 | 0.00 | 41 | 1008.9 |
| 20260507202624 | 16 | 210 | 6.4 | 19.3 | 0.00 | 0.00 | 0.00 | 40 | 1008.9 |
| 20260507201625 | 16 | 217 | 6.4 | 19.3 | 0.00 | 0.00 | 0.00 | 41 | 1008.8 |
| 20260507200619 | 16 | 294 | 3.2 | 25.7 | 0.00 | 0.00 | 0.00 | 44 | 1008.9 |
| 20260507195610 | 16 | 205 | 12.9 | 25.7 | 0.00 | 0.00 | 0.00 | 41 | 1009.0 |
| 20260507194621 | 16 | 203 | 11.3 | 20.9 | 0.00 | 0.00 | 0.00 | 43 | 1009.2 |
| 20260507191315 | 15 | 191 | 6.4 | 22.5 | 0.00 | 0.00 | 0.00 | 45 | 1009.4 |
| 20260507190316 | 16 | 210 | 8.0 | 22.5 | 0.00 | 0.00 | 0.00 | 43 | 1009.5 |
| 20260507185331 | 16 | 203 | 11.3 | 22.5 | 0.00 | 0.00 | 0.00 | 45 | 1009.3 |
| 20260507184347 | 16 | 179 | 6.4 | 22.5 | 0.00 | 0.00 | 0.00 | 48 | 1009.6 |
| 20260507183317 | 16 | 219 | 9.7 | 22.5 | 0.00 | 0.00 | 0.00 | 45 | 1009.6 |
| 20260507182316 | 16 | 210 | 6.4 | 22.5 | 0.00 | 0.00 | 0.00 | 47 | 1009.6 |
| 20260507181247 | 15 | 193 | 11.3 | 22.5 | 0.00 | 0.00 | 0.00 | 47 | 1009.8 |
| 20260507175103 | 15 | 213 | 3.2 | 19.3 | 0.00 | 0.00 | 0.00 | 47 | 1009.8 |
| 20260507174102 | 15 | 168 | 8.0 | 19.3 | 0.00 | 0.00 | 0.00 | 49 | 1009.9 |
| 20260507173125 | 15 | 156 | 6.4 | 17.7 | 0.00 | 0.00 | 0.00 | 49 | 1010.1 |
| 20260507172136 | 15 | 273 | 3.2 | 14.5 | 0.00 | 0.00 | 0.00 | 48 | 1010.3 |
| 20260507171125 | 15 | 175 | 3.2 | 17.7 | 0.00 | 0.00 | 0.00 | 50 | 1010.4 |
| 20260507164952 | 15 | 338 | 1.6 | 17.7 | 0.00 | 0.00 | 0.00 | 45 | 1010.6 |
| 20260507163945 | 15 | 189 | 4.8 | 17.7 | 0.00 | 0.00 | 0.00 | 44 | 1010.6 |
| 20260507162934 | 15 | 345 | 0.0 | 9.7 | 0.00 | 0.00 | 0.00 | 46 | 1010.7 |
| 20260507161934 | 15 | 208 | 3.2 | 12.9 | 0.00 | 0.00 | 0.00 | 46 | 1010.9 |
| 20260507160909 | 14 | 206 | 3.2 | 11.3 | 0.00 | 0.00 | 0.00 | 49 | 1011.1 |
| 20260507155935 | 14 | 63 | 3.2 | 12.9 | 0.00 | 0.00 | 0.00 | 49 | 1011.1 |
| 20260507153839 | 14 | 154 | 3.2 | 17.7 | 0.00 | 0.00 | 0.00 | 48 | 1011.2 |
| 20260507152848 | 13 | 178 | 4.8 | 17.7 | 0.00 | 0.03 | 0.00 | 49 | 1011.3 |
| 20260507151851 | 14 | 160 | 0.0 | 12.9 | 0.00 | 0.03 | 0.00 | 52 | 1011.3 |
| 20260507150911 | 13 | 188 | 1.6 | 12.9 | 0.00 | 0.05 | 0.00 | 52 | 1011.5 |
| 20260507145916 | 14 | 325 | 0.0 | 8.0 | 0.00 | 0.05 | 0.00 | 54 | 1011.6 |
| 20260507144844 | 13 | 8 | 1.6 | 16.1 | 0.00 | 0.05 | 0.00 | 53 | 1011.8 |
| 20260507143813 | 13 | 115 | 4.8 | 16.1 | 0.00 | 0.05 | 0.00 | 59 | 1011.8 |
| 20260507142746 | 13 | 148 | 0.0 | 11.3 | 0.00 | 0.05 | 0.00 | 55 | 1012.0 |
| 20260507141806 | 12 | 101 | 3.2 | 14.5 | 0.00 | 0.15 | 0.00 | 55 | 1012.2 |
| 20260507140829 | 12 | 111 | 3.2 | 12.9 | 0.00 | 0.18 | 0.00 | 56 | 1012.4 |
| 20260507135803 | 12 | 164 | 0.0 | 11.3 | 0.00 | 0.18 | 0.00 | 60 | 1012.5 |
| 20260507134810 | 12 | 171 | 3.2 | 12.9 | 0.00 | 0.18 | 0.00 | 60 | 1012.6 |
| 20260507133808 | 12 | 164 | 4.8 | 12.9 | 0.00 | 0.18 | 0.00 | 59 | 1012.8 |
| 20260507132825 | 12 | 175 | 1.6 | 6.4 | 0.00 | 0.18 | 0.00 | 60 | 1012.8 |
| 20260507125519 | 11 | 103 | 0.0 | 3.2 | 0.00 | 0.18 | 0.00 | 78 | 1012.8 |
| 20260507124543 | 11 | 111 | 0.0 | 3.2 | 0.00 | 0.18 | 0.00 | 83 | 1012.8 |
| 20260507123531 | 10 | 128 | 0.0 | 0.0 | 0.00 | 0.18 | 0.00 | 88 | 1012.9 |
| 20260507122459 | 9 | 139 | 0.0 | 0.0 | 0.00 | 0.18 | 0.00 | 92 | 1012.9 |
| 20260507121441 | 8 | 85 | 0.0 | 1.6 | 0.00 | 0.18 | 0.00 | 93 | 1012.9 |
| 20260507120409 | 7 | 79 | 0.0 | 1.6 | 0.00 | 0.20 | 0.00 | 94 | 1012.9 |
| 20260507115419 | 7 | 137 | 0.0 | 0.0 | 0.00 | 0.20 | 0.00 | 94 | 1012.9 |
| 20260507114439 | 6 | 94 | 0.0 | 0.0 | 0.00 | 0.20 | 0.00 | 94 | 1012.8 |
| 20260507113451 | 6 | 101 | 0.0 | 0.0 | 0.00 | 0.20 | 0.00 | 94 | 1012.8 |
| 20260507112424 | 5 | 126 | 0.0 | 1.6 | 0.00 | 0.20 | 0.00 | 94 | 1012.7 |
| 20260507111409 | 5 | 177 | 0.0 | 1.6 | 0.00 | 0.20 | 0.00 | 94 | 1012.6 |
| 20260507110336 | 5 | 94 | 0.0 | 0.0 | 0.00 | 0.20 | 0.00 | 94 | 1012.4 |
| 20260507105350 | 5 | 164 | 0.0 | 0.0 | 0.00 | 0.20 | 0.00 | 94 | 1012.2 |
| 20260507104319 | 5 | 164 | 0.0 | 0.0 | 0.00 | 0.25 | 0.00 | 94 | 1012.2 |
| 20260507103314 | 5 | 164 | 0.0 | 0.0 | 0.00 | 0.28 | 0.00 | 94 | 1012.2 |
| 20260507102301 | 5 | 164 | 0.0 | 0.0 | 0.00 | 0.33 | 0.00 | 94 | 1012.2 |
| 20260507100140 | 4 | 164 | 0.0 | 0.0 | 0.00 | 0.46 | 0.00 | 92 | 1011.9 |
| 20260507095149 | 4 | 164 | 0.0 | 0.0 | 0.00 | 0.51 | 0.00 | 92 | 1011.9 |
| 20260507094118 | 5 | 164 | 0.0 | 0.0 | 0.00 | 0.51 | 0.00 | 92 | 1011.8 |
| 20260507093116 | 5 | 164 | 0.0 | 0.0 | 0.00 | 0.53 | 0.00 | 92 | 1011.8 |
| 20260507092116 | 5 | 164 | 0.0 | 0.0 | 0.00 | 0.56 | 0.00 | 91 | 1011.8 |
| 20260507091139 | 5 | 164 | 0.0 | 0.0 | 0.00 | 0.58 | 0.00 | 91 | 1012.1 |
| 20260507090127 | 6 | 164 | 0.0 | 0.0 | 0.00 | 0.64 | 0.00 | 91 | 1012.2 |
| 20260507085123 | 6 | 164 | 0.0 | 0.0 | 0.00 | 0.66 | 0.00 | 90 | 1012.2 |
| 20260507084057 | 6 | 164 | 0.0 | 0.0 | 0.00 | 0.69 | 0.00 | 89 | 1012.2 |
| 20260507083113 | 6 | 164 | 0.0 | 0.0 | 0.00 | 0.69 | 0.00 | 89 | 1012.2 |
| 20260507082043 | 7 | 165 | 0.0 | 0.0 | 0.00 | 0.71 | 0.00 | 88 | 1012.1 |
| 20260507081051 | 7 | 164 | 0.0 | 0.0 | 0.00 | 0.71 | 0.00 | 85 | 1012.1 |
| 20260507075002 | 7 | 298 | 0.0 | 0.0 | 0.00 | 0.76 | 0.00 | 81 | 1011.9 |
| 20260507074012 | 7 | 302 | 0.0 | 0.0 | 0.00 | 0.79 | 0.00 | 80 | 1011.9 |
| 20260507073001 | 8 | 302 | 0.0 | 0.0 | 0.00 | 0.79 | 0.00 | 80 | 1011.9 |
| 20260507071943 | 8 | 310 | 0.0 | 0.0 | 0.00 | 0.79 | 0.00 | 79 | 1011.9 |
| 20260507070949 | 8 | 310 | 0.0 | 0.0 | 0.00 | 0.79 | 0.00 | 78 | 1011.9 |
| 20260507064857 | 9 | 286 | 0.0 | 0.0 | 0.00 | 0.79 | 0.00 | 79 | 1011.8 |
| 20260507063833 | 9 | 286 | 0.0 | 4.8 | 0.00 | 0.79 | 0.00 | 80 | 1011.8 |
| 20260507062827 | 9 | 326 | 1.6 | 4.8 | 0.00 | 0.79 | 0.00 | 80 | 1011.8 |
| 20260507061808 | 9 | 281 | 0.0 | 3.2 | 0.00 | 0.79 | 0.00 | 82 | 1011.9 |
| 20260507060822 | 9 | 302 | 0.0 | 3.2 | 0.00 | 0.79 | 0.00 | 85 | 1012.1 |
| 20260507055831 | 9 | 310 | 0.0 | 0.0 | 0.00 | 0.79 | 0.00 | 84 | 1012.2 |
| 20260507054831 | 10 | 284 | 0.0 | 0.0 | 0.00 | 0.79 | 0.00 | 83 | 1012.3 |
| 20260507052642 | 10 | 281 | 0.0 | 0.0 | 0.00 | 0.81 | 0.00 | 79 | 1012.5 |
| 20260507051654 | 10 | 281 | 0.0 | 0.0 | 0.00 | 0.81 | 0.00 | 78 | 1012.5 |
| 20260507050718 | 10 | 281 | 0.0 | 0.0 | 0.00 | 0.81 | 0.00 | 78 | 1012.6 |
| 20260507045721 | 10 | 281 | 0.0 | 0.0 | 0.00 | 0.81 | 0.00 | 80 | 1012.5 |
| 20260507044734 | 10 | 274 | 0.0 | 1.6 | 0.00 | 0.81 | 0.00 | 80 | 1012.6 |
| 20260507043748 | 10 | 287 | 0.0 | 0.0 | 0.00 | 0.81 | 0.00 | 81 | 1012.5 |
| 20260507042755 | 10 | 298 | 0.0 | 0.0 | 0.00 | 0.81 | 0.00 | 81 | 1012.3 |
| 20260507041812 | 10 | 305 | 0.0 | 0.0 | 0.00 | 0.81 | 0.00 | 81 | 1012.4 |
| 20260507034525 | 10 | 325 | 0.0 | 0.0 | 0.00 | 0.81 | 0.81 | 82 | 1012.3 |
| 20260507033459 | 11 | 325 | 0.0 | 0.0 | 0.00 | 0.81 | 0.81 | 81 | 1012.5 |
| 20260507032444 | 11 | 325 | 0.0 | 0.0 | 0.00 | 0.81 | 0.81 | 83 | 1012.1 |
| 20260507030339 | 11 | 325 | 0.0 | 0.0 | 0.00 | 0.81 | 0.81 | 82 | 1012.0 |
| 20260507025358 | 11 | 291 | 0.0 | 3.2 | 0.00 | 0.81 | 0.81 | 84 | 1012.0 |
| 20260507024337 | 11 | 300 | 0.0 | 1.6 | 0.00 | 0.81 | 0.81 | 84 | 1011.7 |
| 20260507023328 | 11 | 300 | 0.0 | 0.0 | 0.00 | 0.81 | 0.81 | 85 | 1011.9 |
| 20260507020103 | 11 | 285 | 0.0 | 0.0 | 0.00 | 0.81 | 0.81 | 89 | 1011.7 |
| 20260507015108 | 11 | 164 | 0.0 | 0.0 | 0.00 | 0.81 | 0.81 | 89 | 1011.4 |
| 20260507014125 | 11 | 164 | 0.0 | 0.0 | 0.00 | 0.81 | 0.81 | 89 | 1011.1 |
| 20260507012022 | 11 | 295 | 0.0 | 0.0 | 0.00 | 0.81 | 0.81 | 89 | 1011.1 |
| 20260507010956 | 11 | 295 | 0.0 | 0.0 | 0.00 | 0.81 | 0.81 | 89 | 1010.9 |
| 20260507010003 | 11 | 296 | 0.0 | 0.0 | 0.00 | 0.81 | 0.81 | 88 | 1010.9 |
| 20260507004930 | 11 | 295 | 0.0 | 0.0 | 0.00 | 0.81 | 0.81 | 88 | 1011.0 |
| 20260507002738 | 12 | 185 | 0.0 | 0.0 | 0.00 | 0.81 | 0.81 | 85 | 1011.0 |
| 20260507001748 | 12 | 184 | 0.0 | 0.0 | 0.00 | 0.81 | 0.81 | 83 | 1011.3 |
| 20260506233423 | 12 | 189 | 0.0 | 0.0 | 0.00 | 0.81 | 0.81 | 80 | 1010.9 |